Temperature
16 16 17 17 14 12 14 15 15 15 16 17 17 18 17 17 17 17 17 18 18 17 17 17 16 16 16 16 16 16 16 16 16 16 16 16 16 16 16 16 16 16 15 15 15 15 15 15 15
15 16 16 16 13 13 14 14 14 15 16 17 17 17 16 16 16 16 17 17 17 17 17 17 16 16 16 16 16 16 16 16 16 16 16 16 16 16 16 16 15 15 15 15 15 15 15 15 15
15 15 16 12 12 13 15 14 14 15 16 16 16 16 16 15 16 16 16 17 17 17 17 16 16 16 16 16 16 16 16 16 16 16 16 16 16 16 16 16 15 15 15 15 15 15 15 15 15
14 15 14 11 13 13 14 14 13 14 15 15 15 14 15 15 15 15 16 16 16 16 16 16 16 16 16 16 16 16 16 16 16 16 16 15 15 15 15 15 15 15 15 15 15 15 15 15 14
14 14 11 11 12 12 12 13 14 14 14 14 14 13 14 15 15 15 15 15 16 16 16 16 16 16 16 16 16 16 16 16 16 16 15 15 15 15 15 15 15 15 15 15 15 15 15 14 14
13 11 10 11 12 12 12 13 14 13 13 14 14 13 14 15 15 15 15 15 15 15 15 15 15 15 15 16 15 15 15 15 15 15 15 15 15 15 15 15 15 15 14 15 15 14 14 14 14
11 9 10 10 11 12 12 13 13 12 12 13 14 13 13 14 14 14 14 15 15 15 15 15 15 15 15 15 15 15 15 15 15 15 15 15 15 15 15 15 15 14 14 14 14 14 14 14 14
11 8 9 9 10 11 12 12 13 13 12 13 14 13 12 13 14 14 14 14 14 15 15 15 15 15 15 15 15 15 15 15 15 15 15 15 15 15 14 14 14 14 14 14 14 14 14 14 14
11 8 9 9 10 11 11 11 12 12 12 13 13 13 13 13 13 14 14 14 14 14 14 14 14 15 15 14 14 14 14 14 14 14 15 14 14 14 14 14 14 14 14 14 14 14 14 14 14
9 8 9 10 10 10 10 11 11 11 11 11 12 13 13 13 13 13 13 13 14 14 14 14 14 14 14 14 14 14 14 14 14 14 14 14 14 14 14 14 14 14 14 13 13 13 13 13 13
8 8 8 9 10 10 10 10 11 10 10 11 12 12 12 12 12 12 13 13 13 13 14 14 14 14 14 14 14 14 14 14 14 14 14 14 14 14 14 14 13 13 13 13 13 13 13 13 13
7 7 8 9 9 9 9 9 9 10 11 12 12 12 12 11 11 12 12 12 12 13 13 13 13 13 13 13 13 14 14 14 14 14 14 14 14 14 14 13 13 13 13 13 13 13 13 13 12
7 7 8 8 8 8 8 8 9 9 11 11 11 11 11 11 11 11 12 12 12 13 13 13 13 13 13 13 13 13 13 13 13 13 13 13 13 13 13 13 13 13 13 13 13 13 12 12 12
6 7 7 8 8 8 8 8 8 9 10 11 11 10 11 11 11 11 11 12 12 12 13 13 13 13 13 13 13 13 13 13 13 13 13 13 13 13 13 13 13 12 12 12 12 12 12 12 12
7 6 6 7 7 8 8 7 8 9 10 10 10 10 10 10 10 10 11 11 12 12 12 12 12 12 12 12 12 12 13 13 13 13 12 12 12 12 12 12 12 12 12 12 12 12 12 12 12
6 6 6 6 7 7 7 7 8 9 9 8 9 9 9 10 10 10 10 11 11 11 12 12 12 12 12 12 12 12 12 12 12 12 12 12 12 12 12 12 12 12 12 12 12 12 12 12 12
5 5 5 6 6 7 7 7 7 8 8 8 8 9 9 9 9 10 10 10 11 11 11 11 11 12 12 12 12 12 12 12 12 12 11 11 11 11 12 12 12 11 11 11 11 11 11 11 11
5 4 5 5 6 6 6 6 7 8 8 8 8 8 8 9 9 10 10 10 10 11 11 11 11 11 11 11 11 11 11 11 11 11 11 11 11 11 11 11 11 11 11 11 11 11 11 11 10
4 4 5 5 6 6 5 6 6 7 7 7 7 8 8 9 9 9 10 10 10 10 10 10 11 11 11 10 11 11 11 11 11 11 11 11 11 11 11 11 11 11 11 11 10 10 10 10 10
5 5 4 5 6 6 5 5 6 6 6 7 7 8 8 9 9 9 10 10 10 10 10 10 10 10 10 10 10 10 10 10 10 10 10 10 10 10 10 10 10 10 10 10 10 10 10 10 10
5 4 4 5 5 5 5 5 6 6 7 7 7 8 8 8 9 9 9 9 9 10 10 10 10 10 10 10 10 10 10 10 10 10 10 10 10 10 10 10 10 10 10 10 10 10 10 9 9
5 5 5 5 4 4 5 5 6 6 6 6 7 7 8 8 8 9 9 9 9 9 9 9 9 10 9 9 9 9 9 9 9 9 9 10 10 9 10 10 10 9 9 9 9 9 9 9 9
4 5 5 5 4 4 4 4 5 5 6 6 6 7 7 8 8 8 9 9 9 9 9 9 9 9 9 9 9 9 9 9 9 9 9 9 9 9 9 9 9 9 9 9 9 9 9 9 8
4 4 4 3 3 4 4 4 5 5 6 6 6 6 7 7 8 8 8 8 8 8 9 9 9 9 9 9 9 9 9 9 9 9 9 9 9 9 9 9 9 9 9 9 8 8 8 8 8
4 3 3 3 3 4 4 4 5 6 5 6 6 6 7 7 7 7 7 8 8 8 8 8 8 8 8 8 8 8 8 8 8 8 8 8 8 8 8 8 8 8 8 8 8 8 8 7 7
3 3 3 4 3 3 3 4 5 5 5 6 6 6 6 7 7 7 7 7 7 7 8 8 8 8 8 8 8 8 8 8 8 8 8 8 8 8 8 8 8 8 7 8 7 7 7 7 7
3 2 3 2 2 3 3 3 4 5 4 5 5 5 6 6 6 7 7 7 7 7 7 8 8 8 8 8 8 8 8 8 8 8 8 8 8 7 7 7 7 7 7 7 7 7 7 6 6
3 2 1 2 3 4 4 4 4 4 4 4 4 5 5 6 6 6 6 7 7 7 7 7 7 7 7 7 7 7 7 7 7 7 7 7 7 7 7 7 7 6 6 6 6 6 6 6 6
2 2 2 1 2 3 3 5 4 4 4 4 4 5 5 5 5 6 6 6 6 7 7 7 7 7 7 7 7 7 7 7 7 7 7 7 7 6 6 6 6 6 6 6 6 5 5 5 5
2 2 1 2 2 1 2 4 4 3 4 4 4 5 5 5 5 5 5 5 6 6 6 6 6 6 6 6 6 6 7 7 6 6 6 6 6 6 6 6 6 5 5 5 5 5 5 5 5
Wind_Speed
12 8 2 4 5 3 3 4 3 2 2 1 1 3 5 4 4 2 2 3 5 7 9 13 13 14 13 13 13 13 13 13 13 13 13 13 13 13 12 12 12 12 13 13 13 13 13 14 14
6 3 4 4 4 3 5 4 4 3 2 1 3 2 3 1 1 2 1 1 5 7 9 11 13 13 13 13 13 13 13 13 12 12 12 12 13 12 12 12 11 12 12 12 12 12 12 13 13
4 3 4 4 4 7 6 3 5 3 1 2 3 3 2 0 1 1 0 3 6 6 8 10 12 12 12 12 13 13 13 12 12 12 12 12 12 12 12 11 11 11 11 11 11 11 11 11 12
3 4 4 3 7 7 4 2 2 1 2 3 3 2 1 2 1 0 3 5 6 6 7 10 12 12 11 12 12 12 12 12 12 12 11 12 12 11 11 11 11 11 10 10 11 11 11 11 11
3 3 2 3 8 4 2 3 1 1 0 1 2 1 1 3 3 4 5 5 6 5 7 9 11 11 11 11 11 11 11 11 11 11 11 11 11 11 11 11 11 10 10 10 10 10 10 10 10
3 3 3 7 8 4 2 3 0 1 0 1 2 1 1 2 5 4 4 5 5 5 6 7 9 10 10 10 11 11 11 11 11 11 10 10 10 10 10 10 10 10 10 9 9 10 10 9 9
3 3 5 6 5 3 2 1 1 1 1 2 2 3 1 0 2 4 4 5 5 5 6 6 7 8 9 10 10 10 10 10 9 9 10 10 10 9 9 9 9 9 9 9 9 9 9 8 8
3 3 2 4 5 4 2 1 1 2 3 1 2 4 3 2 2 4 5 4 5 5 5 4 5 6 6 7 8 8 9 9 8 8 9 9 9 9 8 8 8 8 8 8 8 8 8 8 7
2 2 5 6 5 3 1 1 3 1 1 0 1 2 2 4 4 5 4 3 3 3 3 3 4 5 5 6 7 8 8 8 8 8 9 8 7 7 7 7 8 8 8 8 7 7 7 7 6
2 4 6 3 2 1 1 1 2 1 1 1 2 2 3 6 6 6 5 4 3 3 3 2 3 3 4 5 6 6 6 7 7 7 7 7 7 6 6 7 7 7 7 8 7 6 6 6 5
2 4 3 3 2 2 3 3 2 2 3 5 4 3 5 6 6 6 5 5 5 4 3 3 3 3 3 3 4 5 5 5 6 7 7 7 7 6 6 6 6 6 7 6 6 6 5 5 5
1 3 2 3 3 2 4 4 3 4 6 5 4 5 8 8 8 7 7 5 4 4 4 4 3 3 3 4 4 4 4 4 4 5 6 6 5 4 4 4 4 5 5 5 5 4 4 4 4
2 2 3 3 4 4 5 6 5 7 8 5 3 4 8 8 7 6 5 5 5 4 4 5 4 4 3 3 3 3 3 3 4 5 5 6 4 3 3 3 3 4 4 4 3 3 3 3 3
2 2 3 4 4 4 5 7 4 8 5 3 3 5 7 8 7 6 5 5 5 5 5 5 5 5 4 3 3 3 3 3 4 4 4 5 5 4 3 3 2 2 3 3 3 3 3 2 2
1 1 4 4 4 3 2 7 7 7 4 4 5 6 6 6 7 8 7 6 6 5 5 5 5 5 5 4 3 3 3 3 3 3 4 4 4 5 4 3 2 2 3 3 3 3 3 2 1
1 0 3 4 2 3 2 9 7 4 4 6 6 6 6 6 7 7 6 6 5 5 6 5 4 5 5 4 3 3 3 3 3 3 3 4 4 5 4 3 2 2 3 3 2 2 1 1 0
1 2 5 5 3 2 4 8 7 4 5 7 7 7 7 6 6 6 7 7 7 7 6 5 5 6 5 4 3 3 3 3 2 3 3 4 4 4 4 3 2 3 2 2 2 1 1 1 0
3 3 4 5 3 3 6 9 10 6 6 8 8 7 6 7 7 6 6 7 7 6 6 6 5 5 5 4 3 3 3 2 2 2 3 3 4 4 4 3 2 3 2 1 1 1 1 1 1
3 4 6 7 5 4 8 10 12 8 6 7 7 7 7 7 6 5 5 5 6 6 6 6 6 5 5 4 4 4 4 3 2 2 2 3 4 4 4 2 3 3 3 3 2 1 1 0 1
3 4 5 6 3 3 6 11 9 7 7 7 7 7 6 4 3 3 3 4 5 6 7 7 7 6 6 5 4 3 3 3 2 2 2 3 4 4 4 3 2 2 2 2 2 1 1 1 1
3 4 4 4 6 3 3 7 6 5 4 4 4 5 5 5 5 4 4 5 5 5 6 6 6 6 5 5 3 2 2 2 1 2 2 3 3 4 4 4 3 3 3 3 3 3 3 2 2
4 4 4 4 3 3 0 4 7 5 5 4 5 4 5 4 4 3 3 4 5 5 5 5 6 6 5 5 6 6 5 4 3 3 3 2 3 3 3 4 3 3 2 3 3 3 2 3 2
4 2 2 3 2 4 2 3 6 3 5 6 5 5 5 4 4 4 3 4 4 4 5 5 6 6 5 5 6 6 5 4 2 2 3 3 3 3 3 3 3 3 2 3 3 3 3 3 3
2 2 3 2 1 4 5 4 6 5 7 5 5 5 5 4 4 3 3 3 3 3 3 4 5 6 5 6 6 6 7 5 4 3 3 3 3 3 3 3 3 3 2 3 3 3 3 3 3
2 3 3 3 2 5 2 4 8 7 5 5 6 6 5 4 3 3 3 3 3 3 4 4 6 6 6 6 6 6 7 6 7 5 5 4 3 3 3 3 3 2 3 3 3 3 3 4 4
2 4 4 3 4 4 2 6 7 5 3 4 4 3 3 3 3 3 4 4 3 4 4 4 5 6 6 6 6 5 5 5 5 5 4 4 4 3 3 3 3 2 2 2 3 3 3 3 4
3 2 3 3 1 3 5 6 7 2 3 3 4 3 4 4 3 3 4 3 3 3 4 4 5 5 5 5 5 5 5 5 5 4 4 3 2 2 3 3 3 3 3 3 3 3 4 4 4
3 4 3 3 2 4 6 5 5 4 5 5 5 5 5 5 4 3 4 4 3 3 3 3 4 4 4 5 5 4 4 4 4 3 4 3 3 3 3 3 3 3 3 3 3 3 3 4 3
2 2 3 2 3 3 4 7 4 5 6 6 7 6 5 5 5 4 4 3 3 2 1 1 1 2 3 4 4 4 4 3 3 3 4 3 3 3 3 3 2 2 3 3 3 3 3 4 3
4 5 5 3 4 4 3 8 3 4 4 5 6 6 5 4 4 4 3 2 2 2 1 1 1 1 2 3 3 3 3 3 3 3 3 3 4 3 3 3 3 2 2 3 4 4 4 4 4
Wind_Direction
334 340 31 54 62 62 228 239 232 254 233 257 185 145 151 151 156 188 349 107 120 141 152 153 153 151 147 143 139 133 129 127 125 124 123 121 121 119 116 112 109 107 104 102 101 102 101 99 96
333 350 49 65 114 196 246 231 227 232 218 85 49 70 89 74 41 80 56 72 121 130 140 149 149 151 148 145 141 137 133 131 129 127 126 125 124 123 120 115 112 109 107 106 103 103 102 100 99
342 34 83 93 156 198 211 211 221 258 3 64 56 50 104 36 33 90 259 140 117 114 129 141 142 143 143 145 144 140 137 134 131 129 129 128 126 124 122 119 115 112 111 109 106 105 104 104 103
42 45 62 119 215 221 212 237 237 300 10 44 89 52 31 36 40 335 126 119 115 109 117 139 141 141 138 137 140 141 140 138 136 133 132 131 127 124 122 120 118 115 113 110 108 106 105 105 107
53 81 113 213 233 237 234 275 246 142 21 39 99 105 327 2 40 74 110 112 114 112 114 134 142 141 138 138 137 135 136 137 137 135 135 134 131 127 125 124 122 120 117 114 112 111 109 105 108
54 82 162 215 233 250 261 274 230 70 54 64 101 114 262 53 57 72 79 97 103 112 107 124 137 140 138 137 139 136 134 132 134 133 132 133 132 133 132 130 128 127 123 120 117 116 114 109 110
120 135 198 209 233 253 266 278 174 210 239 240 166 144 206 59 62 81 72 85 89 97 98 104 124 133 138 137 134 136 134 134 130 132 133 134 133 132 134 134 135 134 132 128 125 121 121 117 113
121 121 192 213 216 238 291 332 263 200 232 247 137 155 191 214 99 84 72 86 96 89 88 86 99 115 124 133 134 132 133 132 131 127 127 129 130 132 135 133 135 137 137 133 129 126 124 121 117
91 141 213 214 204 230 296 331 319 314 150 185 232 203 207 146 127 101 86 74 98 104 96 87 86 94 108 116 126 129 129 129 128 125 119 116 116 119 126 131 132 131 131 132 129 130 124 121 117
112 200 221 226 208 246 312 289 296 356 341 284 312 359 121 142 151 143 143 149 152 159 153 117 101 103 104 118 114 117 117 117 117 120 117 112 109 112 118 124 126 129 128 126 121 122 120 115 108
158 202 223 286 303 300 294 301 293 180 240 232 225 202 159 167 171 170 173 177 181 178 173 165 139 123 110 101 109 102 105 106 110 118 118 115 108 106 109 111 116 115 115 110 107 98 100 107 113
185 252 248 277 310 323 297 291 292 239 246 261 237 196 178 182 187 189 188 192 187 182 180 177 159 131 115 111 112 110 103 105 108 122 125 122 113 104 103 104 111 111 112 109 105 105 105 103 114
231 250 264 273 290 279 290 281 269 273 277 278 239 204 192 194 202 206 197 191 190 192 185 181 168 153 138 128 123 118 119 120 125 129 132 134 130 134 119 114 116 116 120 121 121 118 114 112 107
229 231 277 289 280 280 271 281 267 269 279 268 217 217 209 203 204 206 205 202 200 198 189 184 176 163 152 148 140 135 134 124 129 132 140 144 144 143 140 132 124 126 126 129 134 133 135 133 131
245 294 306 282 271 268 279 285 248 262 263 249 234 228 220 219 209 208 207 210 209 201 189 183 180 164 162 159 155 144 144 143 138 144 153 151 152 156 147 149 149 150 143 137 126 119 123 125 123
25 1 273 279 259 258 184 261 261 251 226 234 231 229 219 227 221 219 216 215 217 203 188 186 188 172 169 166 159 154 151 154 151 153 163 160 158 158 148 153 163 156 142 146 150 145 124 130 142
36 243 252 278 245 238 204 254 266 262 228 235 235 230 222 228 231 228 223 213 208 202 190 186 182 177 173 168 161 156 149 153 161 158 167 170 167 165 156 165 168 160 150 161 178 160 155 173 227
222 236 246 250 262 241 248 258 274 273 242 238 236 234 231 229 234 228 217 212 202 194 192 191 179 177 172 163 153 146 143 158 168 177 178 174 177 175 166 163 164 164 164 169 176 171 148 186 200
202 233 266 267 267 252 252 263 274 276 256 243 238 232 230 233 237 224 214 205 195 189 188 192 185 182 173 173 174 174 184 187 199 203 188 187 184 182 175 174 172 175 182 187 177 173 184 218 159
223 252 269 288 292 262 262 269 269 266 252 238 232 233 233 236 244 236 227 199 192 194 193 191 192 189 189 189 188 184 177 181 200 204 195 199 191 188 184 180 191 194 183 173 182 163 178 233 171
242 224 243 271 316 296 284 284 263 269 252 249 246 237 232 221 223 237 235 206 194 198 202 202 201 196 194 186 161 140 131 135 168 212 202 215 201 195 189 188 184 191 188 194 200 192 183 215 236
254 239 245 269 299 295 267 278 272 257 262 259 259 255 247 244 238 245 242 212 205 207 204 203 203 200 195 183 175 172 182 191 208 212 209 211 197 195 197 188 183 189 199 203 207 205 201 187 223
230 276 265 251 239 300 277 245 279 258 254 253 250 253 255 251 239 245 252 236 228 217 209 206 204 201 194 188 186 184 188 198 189 192 194 201 195 191 194 188 181 188 204 212 212 206 206 202 207
223 359 355 19 70 274 242 213 277 240 239 259 266 267 264 265 258 254 265 265 255 230 217 205 203 208 196 187 191 192 188 186 179 202 208 208 206 196 189 184 181 190 201 210 216 215 212 216 209
82 86 14 349 327 256 242 225 255 251 239 248 261 270 276 275 276 280 289 272 251 235 225 212 209 209 195 185 193 201 197 191 196 205 212 208 212 211 205 194 197 203 204 206 206 212 220 221 214
188 151 166 213 246 289 292 241 257 264 265 278 277 278 283 275 273 276 275 270 260 245 230 213 208 206 195 190 194 199 198 196 204 209 215 210 217 215 202 195 198 206 205 207 202 216 224 219 220
138 179 179 147 291 285 270 279 295 282 316 308 304 303 281 269 266 273 282 282 272 261 240 215 208 203 196 194 192 195 197 201 206 209 212 205 209 208 195 199 204 207 210 208 205 218 224 219 223
153 147 111 141 191 271 285 273 262 273 273 281 284 285 283 281 281 287 287 280 267 254 258 234 210 201 200 194 194 199 200 199 202 202 203 209 209 197 194 200 206 211 212 210 212 227 229 220 227
148 146 141 153 185 196 271 272 232 230 243 257 265 272 270 276 278 279 286 285 292 298 267 261 238 210 204 202 200 195 199 186 183 199 206 208 207 199 193 188 196 215 218 212 213 224 225 222 229
184 185 170 189 233 209 234 270 271 247 262 260 266 273 275 277 282 279 276 293 307 289 285 270 262 237 223 207 199 201 193 178 185 200 211 210 204 202 197 192 198 209 224 217 213 220 226 226 228
Height
1503 1504 1506 1508 1512 1522 1523 1516 1512 1510 1509 1508 1508 1508 1509 1512 1515 1519 1514 1512 1514 1515 1518 1520 1523 1525 1526 1528 1530 1531 1533 1534 1535 1536 1537 1538 1539 1540 1541 1542 1542 1543 1543 1544 1544 1545 1545 1545 1545
1503 1505 1507 1508 1517 1526 1521 1513 1511 1508 1507 1507 1507 1508 1508 1510 1511 1512 1511 1512 1514 1516 1518 1520 1522 1525 1526 1528 1530 1531 1533 1534 1535 1537 1538 1539 1540 1541 1541 1542 1543 1544 1544 1545 1545 1545 1546 1546 1546
1503 1504 1506 1510 1518 1519 1514 1509 1508 1506 1506 1506 1507 1508 1510 1510 1511 1511 1511 1512 1515 1517 1519 1520 1522 1524 1526 1528 1530 1532 1533 1534 1536 1537 1538 1539 1540 1541 1542 1543 1543 1544 1545 1545 1546 1546 1547 1547 1547
1503 1505 1507 1513 1513 1510 1508 1507 1506 1506 1506 1506 1507 1509 1510 1512 1511 1511 1512 1513 1515 1517 1519 1521 1523 1525 1526 1528 1530 1531 1533 1535 1536 1537 1538 1539 1540 1541 1542 1543 1544 1544 1545 1546 1546 1547 1547 1547 1548
1503 1504 1510 1514 1510 1506 1506 1506 1506 1505 1506 1506 1507 1509 1509 1511 1511 1511 1512 1513 1515 1517 1520 1521 1523 1525 1527 1528 1530 1531 1533 1534 1536 1537 1538 1539 1540 1541 1542 1543 1544 1544 1545 1546 1546 1547 1547 1548 1548
1503 1504 1513 1513 1508 1506 1505 1505 1505 1506 1506 1506 1507 1508 1509 1510 1510 1511 1512 1514 1516 1518 1520 1522 1524 1525 1527 1528 1530 1531 1533 1534 1535 1536 1538 1539 1540 1541 1542 1543 1543 1544 1545 1546 1546 1547 1547 1548 1548
1503 1507 1511 1510 1508 1507 1505 1505 1505 1506 1506 1506 1507 1508 1508 1509 1510 1511 1513 1514 1516 1518 1520 1521 1523 1525 1526 1528 1529 1531 1532 1534 1535 1536 1537 1538 1539 1540 1541 1542 1543 1544 1545 1545 1546 1547 1547 1548 1548
1502 1507 1510 1511 1509 1507 1505 1504 1505 1505 1505 1507 1507 1507 1507 1508 1509 1511 1513 1515 1516 1518 1519 1521 1522 1524 1526 1527 1529 1530 1531 1533 1534 1535 1536 1538 1539 1540 1541 1541 1542 1543 1544 1545 1546 1546 1547 1548 1548
1503 1510 1510 1508 1508 1505 1504 1504 1504 1504 1504 1505 1505 1506 1506 1507 1508 1510 1511 1513 1515 1517 1518 1520 1522 1523 1525 1526 1528 1530 1531 1532 1533 1534 1535 1536 1537 1539 1539 1540 1541 1542 1543 1544 1545 1546 1547 1547 1548
1502 1509 1506 1505 1505 1504 1504 1504 1504 1504 1504 1504 1504 1504 1505 1506 1507 1507 1509 1510 1512 1515 1517 1519 1521 1522 1523 1525 1526 1528 1529 1531 1532 1533 1534 1535 1536 1537 1538 1539 1540 1541 1542 1543 1544 1545 1546 1546 1547
1503 1505 1505 1504 1504 1504 1504 1504 1504 1503 1503 1502 1502 1502 1502 1503 1505 1506 1507 1509 1510 1513 1515 1517 1519 1520 1522 1523 1524 1526 1527 1529 1530 1531 1532 1533 1534 1536 1537 1538 1539 1540 1541 1542 1543 1544 1545 1545 1546
1504 1504 1504 1504 1504 1504 1504 1503 1503 1501 1500 1500 1500 1501 1500 1501 1502 1503 1504 1507 1508 1510 1512 1515 1517 1519 1520 1521 1523 1524 1525 1527 1528 1529 1530 1531 1532 1534 1535 1536 1537 1538 1539 1540 1541 1542 1543 1544 1545
1503 1504 1504 1504 1503 1503 1503 1502 1502 1499 1498 1498 1498 1498 1498 1498 1499 1502 1503 1504 1506 1507 1509 1512 1514 1516 1518 1519 1521 1522 1524 1525 1526 1528 1528 1529 1531 1532 1533 1534 1536 1537 1538 1539 1540 1541 1542 1542 1543
1503 1503 1503 1502 1502 1502 1502 1500 1500 1496 1497 1496 1495 1495 1496 1496 1497 1498 1500 1501 1503 1504 1506 1509 1511 1514 1515 1517 1518 1520 1521 1523 1524 1526 1527 1528 1529 1530 1531 1533 1534 1535 1536 1537 1538 1539 1540 1541 1542
1502 1502 1502 1501 1500 1501 1501 1499 1497 1495 1495 1494 1493 1493 1493 1494 1494 1495 1496 1498 1500 1502 1504 1506 1508 1511 1512 1514 1516 1517 1519 1521 1522 1523 1525 1526 1527 1528 1529 1530 1532 1533 1534 1536 1537 1538 1539 1539 1540
1502 1504 1505 1500 1500 1499 1503 1499 1493 1493 1493 1491 1491 1491 1490 1491 1491 1492 1494 1496 1497 1499 1501 1503 1505 1507 1509 1512 1513 1515 1516 1518 1520 1521 1523 1524 1525 1526 1527 1528 1529 1531 1532 1533 1534 1535 1536 1537 1537
1506 1508 1506 1502 1499 1498 1499 1496 1491 1491 1490 1489 1488 1488 1487 1487 1488 1490 1491 1493 1494 1496 1498 1500 1502 1504 1506 1508 1510 1512 1514 1515 1517 1519 1520 1521 1522 1523 1524 1525 1527 1528 1530 1531 1532 1533 1534 1534 1535
1508 1508 1506 1503 1498 1498 1497 1493 1488 1487 1487 1486 1485 1484 1484 1484 1485 1486 1488 1490 1491 1493 1495 1497 1499 1501 1503 1505 1507 1509 1511 1513 1514 1515 1517 1519 1520 1521 1522 1523 1524 1525 1526 1527 1528 1529 1531 1531 1532
1505 1506 1505 1501 1497 1497 1494 1491 1485 1483 1484 1482 1481 1481 1480 1480 1482 1483 1485 1486 1487 1490 1492 1493 1496 1497 1499 1501 1503 1504 1506 1508 1510 1512 1514 1515 1517 1518 1519 1520 1521 1522 1523 1524 1526 1526 1527 1528 1529
1503 1504 1503 1499 1496 1495 1493 1489 1483 1481 1480 1479 1478 1477 1477 1477 1478 1479 1480 1482 1483 1485 1488 1490 1492 1494 1496 1498 1500 1502 1503 1505 1507 1509 1510 1512 1514 1515 1516 1517 1518 1519 1520 1521 1522 1523 1524 1524 1525
1502 1503 1502 1501 1497 1494 1493 1488 1482 1478 1476 1476 1475 1475 1475 1475 1475 1476 1477 1478 1480 1481 1483 1485 1488 1490 1492 1494 1496 1498 1500 1502 1504 1505 1506 1508 1510 1511 1512 1513 1514 1515 1516 1517 1519 1520 1520 1521 1522
1501 1498 1499 1499 1501 1500 1497 1494 1481 1477 1476 1474 1473 1473 1472 1473 1473 1473 1474 1475 1476 1478 1481 1482 1485 1486 1488 1490 1492 1493 1495 1496 1498 1500 1502 1504 1505 1507 1508 1509 1511 1512 1513 1514 1515 1516 1517 1518 1518
1499 1497 1498 1498 1501 1502 1498 1497 1483 1478 1475 1471 1471 1471 1470 1471 1471 1471 1471 1472 1473 1475 1477 1478 1480 1482 1484 1486 1488 1490 1491 1493 1495 1497 1498 1499 1501 1503 1504 1505 1506 1507 1509 1510 1511 1511 1513 1513 1514
1497 1499 1499 1501 1503 1504 1497 1497 1486 1478 1472 1470 1469 1468 1468 1468 1469 1469 1470 1470 1470 1472 1473 1474 1477 1478 1479 1481 1483 1485 1487 1489 1491 1493 1493 1495 1496 1498 1500 1501 1502 1503 1504 1505 1506 1507 1508 1509 1510
1499 1504 1509 1507 1509 1502 1494 1493 1483 1470 1468 1468 1467 1466 1466 1466 1467 1467 1467 1467 1467 1468 1469 1470 1472 1472 1475 1477 1479 1481 1483 1485 1486 1488 1489 1491 1492 1493 1495 1496 1497 1498 1499 1500 1501 1502 1503 1504 1505
1501 1503 1509 1508 1507 1501 1495 1491 1477 1468 1467 1466 1466 1465 1464 1464 1464 1464 1464 1464 1464 1464 1465 1466 1467 1468 1470 1473 1475 1477 1479 1481 1482 1484 1485 1487 1487 1489 1490 1492 1493 1494 1495 1496 1497 1498 1498 1499 1499
1500 1504 1505 1510 1510 1507 1496 1488 1475 1467 1466 1465 1465 1463 1462 1462 1462 1461 1461 1461 1460 1461 1461 1462 1463 1465 1466 1468 1471 1473 1475 1476 1477 1480 1482 1482 1484 1485 1486 1488 1488 1489 1491 1492 1492 1492 1493 1494 1494
1499 1502 1507 1509 1507 1503 1494 1487 1479 1470 1466 1465 1464 1462 1461 1461 1460 1459 1459 1458 1458 1458 1459 1460 1461 1462 1463 1465 1468 1469 1470 1472 1473 1475 1477 1478 1480 1481 1482 1483 1484 1485 1485 1487 1487 1488 1488 1488 1489
1501 1503 1504 1508 1507 1505 1498 1483 1468 1466 1463 1462 1460 1459 1459 1459 1457 1457 1456 1456 1456 1456 1456 1456 1457 1458 1460 1462 1464 1465 1466 1467 1469 1471 1473 1474 1476 1477 1477 1478 1479 1480 1481 1482 1482 1482 1483 1483 1483
1497 1499 1502 1503 1505 1507 1503 1484 1463 1463 1461 1460 1459 1458 1458 1457 1456 1455 1454 1454 1454 1454 1454 1454 1455 1456 1458 1459 1460 1461 1462 1463 1465 1467 1468 1470 1471 1472 1472 1474 1475 1476 1476 1476 1477 1477 1478 1478 1478